Petersburg, AK

1:09 PM AKST on February 25, 2017 (GMT -0900)
Johnson Petersburg

Weather History for PAPG - February, 2013

Change the Weather History Date:

Thursday, February 21, 2013

  Actual Average Record
Temperature  
Mean Temperature 36 °F -  
Max Temperature 39 °F 36 °F 50 °F (2016)
Min Temperature 33 °F 28 °F 7 °F (1986)
Degree Days  
Heating Degree Days 29    
Moisture  
Dew Point 32 °F    
Average Humidity 86    
Maximum Humidity 93    
Minimum Humidity 65    
Precipitation  
Precipitation 0.27 in - - ()
Sea Level Pressure  
Sea Level Pressure 29.40 in    
Wind  
Wind Speed 3 mph (SE)    
Max Wind Speed 9 mph    
Max Gust Speed -    
Visibility 9 miles    
Events Rain , Snow    
Averages and records for this station are not official NWS values.
T = Trace of Precipitation, MM = Missing Value Source: NWS Daily Summary

Daily Weather History Graph

Daily Weather History Graph

Search for Another Location

Airport or City:

Trip Planner

Search our weather history database for the weather conditions in past years. The results will help you decide how hot, cold, wet, or windy it might be!

Date:

Astronomy

Feb. 21, 2013 Rise Set
Actual Time 7:03 AM AKST 5:08 PM AKST
Civil Twilight 6:24 AM AKST 5:46 PM AKST
Nautical Twilight 5:40 AM AKST 6:31 PM AKST
Astronomical Twilight 4:56 AM AKST 7:15 PM AKST
Moon 12:58 PM AKST (2/21) 4:45 AM AKST (2/21)
Length of Visible Light 11h 22m
Length of Day
10h 04m
Waxing Gibbous, 85% of the Moon is Illuminated
Feb 21
Waxing Gibbous
Feb 25
Full
Mar 4
Last Quarter
Mar 11
New
Mar 19
First Quarter

Hourly Weather History & Observations

Time (AKST) Temp. Windchill Dew Point Humidity Pressure Visibility Wind Dir Wind Speed Gust Speed Precip Events Conditions
12:16 AM 35.6 °F 31.7 °F 32.0 °F 87% 29.36 in 10.0 mi East 4.6 mph - N/A   Overcast
12:36 AM 35.6 °F - 30.2 °F 81% 29.36 in 10.0 mi Calm Calm - 0.02 in   Overcast
12:56 AM 35.6 °F 32.8 °F 30.2 °F 81% 29.36 in 10.0 mi North 3.5 mph - 0.03 in   Overcast
1:16 AM 33.8 °F - 30.2 °F 87% 29.37 in 10.0 mi Calm Calm - N/A   Overcast
1:36 AM 33.8 °F 30.8 °F 30.2 °F 87% 29.37 in 9.0 mi WNW 3.5 mph - 0.01 in   Overcast
1:56 AM 33.8 °F 30.8 °F 32.0 °F 93% 29.38 in 7.0 mi SW 3.5 mph - 0.03 in   Overcast
2:16 AM 33.8 °F 30.8 °F 30.2 °F 87% 29.38 in 9.0 mi SW 3.5 mph - 0.02 in   Overcast
2:56 AM 33.8 °F 30.8 °F 30.2 °F 87% 29.38 in 5.0 mi WSW 3.5 mph - 0.08 in   Overcast
3:16 AM 33.8 °F - 30.2 °F 87% 29.37 in 6.0 mi Calm Calm - 0.02 in   Overcast
3:36 AM 33.8 °F - 30.2 °F 87% 29.37 in 5.0 mi Calm Calm - 0.03 in   Overcast
3:56 AM 33.8 °F 30.8 °F 30.2 °F 87% 29.37 in 9.0 mi SW 3.5 mph - 0.05 in   Overcast
4:16 AM 33.8 °F 30.8 °F 30.2 °F 87% 29.37 in 9.0 mi SW 3.5 mph - 0.01 in   Overcast
4:36 AM 33.8 °F 30.8 °F 30.2 °F 87% 29.37 in 10.0 mi WSW 3.5 mph - 0.01 in   Overcast
4:56 AM 33.8 °F - 30.2 °F 87% 29.38 in 10.0 mi Calm Calm - 0.01 in   Overcast
5:16 AM 33.8 °F - 30.2 °F 87% 29.38 in 10.0 mi Calm Calm - 0.01 in   Overcast
5:36 AM 33.8 °F - 30.2 °F 87% 29.39 in 10.0 mi Calm Calm - 0.01 in   Overcast
5:56 AM 33.8 °F - 30.2 °F 87% 29.39 in 10.0 mi Calm Calm - 0.01 in   Overcast
6:16 AM 33.8 °F 29.6 °F 30.2 °F 87% 29.40 in 10.0 mi WSW 4.6 mph - N/A   Overcast
6:36 AM 33.8 °F - 30.2 °F 87% 29.40 in 10.0 mi Calm Calm - N/A   Overcast
6:56 AM 33.8 °F - 30.2 °F 87% 29.40 in 10.0 mi Calm Calm - N/A   Overcast
7:16 AM 33.8 °F - 30.2 °F 87% 29.41 in 10.0 mi Calm Calm - N/A   Overcast
7:36 AM 33.8 °F - 30.2 °F 87% 29.41 in 10.0 mi Calm Calm - 0.01 in   Overcast
7:56 AM 33.8 °F - 30.2 °F 87% 29.41 in 10.0 mi Calm Calm - 0.01 in   Mostly Cloudy
8:16 AM 33.8 °F 30.8 °F 30.2 °F 87% 29.42 in 10.0 mi SW 3.5 mph - N/A   Mostly Cloudy
8:56 AM 33.8 °F - 30.2 °F 87% 29.43 in 10.0 mi Calm Calm - N/A   Mostly Cloudy
9:16 AM 33.8 °F 30.8 °F 32.0 °F 93% 29.43 in 10.0 mi SW 3.5 mph - N/A   Mostly Cloudy
9:36 AM 35.6 °F - 32.0 °F 87% 29.43 in 10.0 mi Calm Calm - N/A   Mostly Cloudy
9:56 AM 35.6 °F 32.8 °F 33.8 °F 93% 29.44 in 10.0 mi SW 3.5 mph - N/A   Overcast
10:16 AM 35.6 °F 32.8 °F 32.0 °F 87% 29.44 in 10.0 mi WSW 3.5 mph - N/A   Overcast
10:36 AM 35.6 °F 32.8 °F 33.8 °F 93% 29.45 in 10.0 mi West 3.5 mph - N/A   Overcast
10:56 AM 35.6 °F - 33.8 °F 93% 29.46 in 7.0 mi Calm Calm - N/A   Overcast
11:16 AM 35.6 °F - 33.8 °F 93% 29.46 in 7.0 mi Calm Calm - N/A   Overcast
11:36 AM 35.6 °F - 33.8 °F 93% 29.46 in 7.0 mi Calm Calm - N/A   Overcast
11:56 AM 37.4 °F 34.9 °F 33.8 °F 87% 29.46 in 7.0 mi NE 3.5 mph - N/A   Overcast
12:16 PM 37.4 °F 33.8 °F 33.8 °F 87% 29.46 in 7.0 mi ENE 4.6 mph - 0.01 in   Overcast
12:36 PM 37.4 °F 33.8 °F 33.8 °F 87% 29.46 in 7.0 mi SSW 4.6 mph - 0.01 in   Overcast
12:56 PM 39.2 °F 33.6 °F 32.0 °F 75% 29.47 in 10.0 mi South 8.1 mph - 0.01 in   Mostly Cloudy
1:16 PM 39.2 °F 35.9 °F 33.8 °F 81% 29.46 in 10.0 mi SSE 4.6 mph - N/A   Mostly Cloudy
1:36 PM 39.2 °F 35.0 °F 35.6 °F 87% 29.46 in 10.0 mi ENE 5.8 mph - N/A   Mostly Cloudy
1:56 PM 39.2 °F 35.0 °F 33.8 °F 81% 29.45 in 10.0 mi East 5.8 mph - N/A   Mostly Cloudy
2:16 PM 37.4 °F 34.9 °F 33.8 °F 87% 29.45 in 10.0 mi East 3.5 mph - N/A   Mostly Cloudy
2:36 PM 39.2 °F 35.9 °F 33.8 °F 81% 29.45 in 10.0 mi ESE 4.6 mph - N/A   Mostly Cloudy
2:56 PM 37.4 °F 32.1 °F 33.8 °F 87% 29.44 in 7.0 mi ENE 6.9 mph - N/A   Mostly Cloudy
3:16 PM 37.4 °F - 33.8 °F 87% 29.44 in 7.0 mi Calm Calm - N/A   Mostly Cloudy
3:36 PM 37.4 °F - 32.0 °F 81% 29.44 in 7.0 mi Calm Calm - N/A   Mostly Cloudy
3:56 PM 37.4 °F 33.8 °F 33.8 °F 87% 29.43 in 10.0 mi NNW 4.6 mph - N/A   Overcast
4:16 PM 37.4 °F - 33.8 °F 87% 29.43 in 10.0 mi Calm Calm - N/A   Overcast
4:36 PM 37.4 °F 34.9 °F 32.0 °F 81% 29.42 in 10.0 mi NW 3.5 mph - N/A   Overcast
4:56 PM 37.4 °F - 32.0 °F 81% 29.41 in 10.0 mi Calm Calm - N/A   Overcast
5:16 PM 37.4 °F - 33.8 °F 87% 29.40 in 10.0 mi Calm Calm - N/A   Overcast
5:36 PM 35.6 °F 30.7 °F 32.0 °F 87% 29.39 in 10.0 mi East 5.8 mph - N/A   Overcast
5:56 PM 35.6 °F 30.7 °F 32.0 °F 87% 29.37 in 10.0 mi East 5.8 mph - N/A   Overcast
6:16 PM 35.6 °F 29.9 °F 32.0 °F 87% 29.36 in 10.0 mi ESE 6.9 mph - N/A   Overcast
6:36 PM 35.6 °F 29.9 °F 32.0 °F 87% 29.34 in 10.0 mi East 6.9 mph - 0.01 in   Overcast
6:56 PM 35.6 °F 29.2 °F 32.0 °F 87% 29.32 in 10.0 mi East 8.1 mph - 0.02 in   Overcast
7:16 PM 35.6 °F 29.9 °F 30.2 °F 81% 29.31 in 10.0 mi East 6.9 mph - 0.01 in   Overcast
7:36 PM 35.6 °F 28.6 °F 30.2 °F 81% 29.29 in 10.0 mi East 9.2 mph - 0.02 in   Overcast
7:52 PM 35.6 °F 29.2 °F 30.2 °F 81% 29.28 in 5.0 mi East 8.1 mph - N/A Rain , Snow Light Rain
8:53 PM 37.4 °F 31.4 °F 26.6 °F 65% 29.21 in 5.0 mi East 8.1 mph - N/A Rain , Snow Light Rain
9:47 PM 33.8 °F 27.0 °F 23.0 °F 65% 29.15 in 5.0 mi East 8.1 mph - N/A Rain , Snow Light Rain